Location: Unspecified
(38.9820°N, 94.4650°W)
Time: 18:54:25
(UTC-05:00)

Resurs 1-4 Rocket - Visible Passes

Search period start: 19 September 2014 00:00
Search period end: 29 September 2014 00:00
Orbit: 801 x 814 km, 98.3° (Epoch: 18 September)

Date Brightness Start Highest point End Pass type
(mag) Time Alt. Az. Time Alt. Az. Time Alt. Az.
19 Sep 4.8 04:00:35 10° ENE 04:03:05 13° E 04:05:34 10° ESE visible
19 Sep 2.0 05:38:07 10° N 05:43:25 70° WNW 05:48:41 10° SSW visible
20 Sep 2.3 05:13:42 10° NNE 05:19:01 71° ESE 05:24:18 10° S visible
21 Sep 3.3 04:49:32 10° NNE 04:54:33 41° E 04:59:32 10° SSE visible
21 Sep 3.2 06:29:57 10° NNW 06:34:08 24° WNW 06:38:19 10° WSW visible
22 Sep 4.1 04:25:42 10° NE 04:29:59 25° E 04:34:15 10° SSE visible
22 Sep 2.6 06:05:01 10° N 06:09:56 39° WNW 06:14:49 10° SW visible
23 Sep 4.8 04:02:33 10° ENE 04:05:20 14° E 04:08:07 10° ESE visible
23 Sep 2.1 05:40:21 10° N 05:45:38 66° WNW 05:50:53 10° SSW visible
24 Sep 2.2 05:15:55 10° NNE 05:21:15 75° ESE 05:26:33 10° S visible
25 Sep 3.1 04:51:43 10° NNE 04:56:47 44° E 05:01:49 10° S visible
25 Sep 3.3 06:32:15 10° NNW 06:36:20 23° WNW 06:40:24 10° WSW visible
26 Sep 4.0 04:27:49 10° NE 04:32:14 26° E 04:36:37 10° SSE visible
26 Sep 2.7 06:07:17 10° N 06:12:08 37° WNW 06:16:58 10° SW visible
27 Sep 4.7 04:04:33 10° NE 04:07:35 15° E 04:10:37 10° SE visible
27 Sep 2.1 05:42:36 10° N 05:47:51 62° WNW 05:53:04 10° SSW visible
28 Sep 2.2 05:18:08 10° NNE 05:23:28 79° ESE 05:28:47 10° S visible
